Location: Auttagershofen
(48.1940°N, 10.0237°E)
Time: 06:38:40
(UTC+00:00)

CZ-4C R/B - Pass Details

Date: 18 January 2026
Orbit: 482 x 1496 km, 63.4° (Epoch: 17 February)

Event Time Altitude Azimuth Distance (km) Brightness Sun altitude
Exits shadow 04:15:19 19° 350° (N) 2,094 4.1 -27.5°
Maximum altitude 04:17:21 22° 16° (NNE) 2,046 4.3 -27.2°
Drops below altitude 10° 04:22:52 10° 64° (ENE) 3,092 5.9 -26.3°
Sets 04:26:42 0° 79° (E) 4,237 7.1 -25.6°
